Flag for U.S.A. Weather past 2 weeks in Asheville, North Carolina, U.S.A.

Now
31 °F

Light snow. Ice fog.


Feels Like: 26 °F
Forecast: 27 / 57 °F
Wind: 5 mph from South

Location: Asheville Regional Airport

Current Time: Mar 1, 2015 at 7:33:20 AM

Latest Report: Mar 1, 2015 at 6:54 AM


Visibility: 4 mi

Pressure: 30.53 "Hg

Humidity: 89%

Dew point: 28 °F

Location of AshevilleLocation

Historic Weather in Asheville — Graph

°F

Asheville temperature yesterday

Maximum temperature yesterday: 39 °F (at 4:54 PM)
Minimum temperature yesterday: 23 °F (at 2:54 AM)
Average temperature yesterday: 31 °F

Past Weeks' High & Low Weather Summary

 TemperatureHumidityPressure
High58 °F (Feb 22, 3:54 PM)100% (Feb 22, 2:54 AM)30.68 "Hg (Feb 22, 2:54 AM)
Low3 °F (Feb 19, 6:54 AM)17% (Feb 15, 3:54 PM)29.68 "Hg (Feb 17, 4:04 AM)
Average28 °F65%30.12 "Hg
* Reported Feb 14 5:54 AM — Mar 1 5:54 AM, Asheville, Weather by CustomWeather, © 2015

Note: Actual official high and low records may vary slightly from our data, if they occured in-between our weather recording intervals... More about our weather records

Advertising

Asheville weather history for previous 24 hours

 ConditionsComfort  
Time TempWeatherWind HumidityBarometerVisibility
5:54 AM
Sun, Mar 1
31 °FOvercast.6 mph85%30.53 "Hg7 mi
4:54 AM31 °FLight snow. Overcast.6 mph82%30.53 "Hg6 mi
3:54 AM32 °FOvercast.No wind69%30.54 "Hg10 mi
2:54 AM32 °FOvercast.5 mph69%30.57 "Hg10 mi
1:54 AM32 °FLight snow. Overcast.6 mph66%30.59 "Hg10 mi
12:54 AM32 °FOvercast.6 mph64%30.60 "Hg10 mi
11:54 PM
Sat, Feb 28
30 °FPassing clouds.5 mph69%30.62 "Hg10 mi
10:54 PM32 °FOvercast.9 mph64%30.63 "Hg10 mi
9:54 PM32 °FOvercast.8 mph64%30.63 "Hg10 mi
8:54 PM34 °FOvercast.9 mph59%30.62 "Hg10 mi
7:54 PM34 °FOvercast.9 mph56%30.60 "Hg10 mi
6:54 PM36 °FOvercast.9 mph52%30.58 "Hg10 mi
5:54 PM37 °FOvercast.10 mph50%30.57 "Hg10 mi
4:54 PM39 °FOvercast.9 mph46%30.57 "Hg10 mi
3:54 PM38 °FScattered clouds.8 mph45%30.57 "Hg10 mi
2:54 PM37 °FPartly sunny.7 mph46%30.59 "Hg10 mi
1:54 PM36 °FPartly sunny.9 mph46%30.60 "Hg10 mi
12:54 PM35 °FPartly sunny.8 mph48%30.64 "Hg10 mi
11:54 AM33 °FPartly sunny.7 mph49%30.66 "Hg10 mi
10:54 AM32 °FOvercast.7 mph47%30.68 "Hg10 mi
9:54 AM30 °FOvercast.6 mph54%30.67 "Hg10 mi
8:54 AM30 °FOvercast.8 mph54%30.67 "Hg10 mi
7:54 AM29 °FOvercast.6 mph61%30.64 "Hg10 mi
Weather by CustomWeather, © 2015

See weather overviewHow to use our weather pages